Content
SEND FEEDBACK

Daily
Averages
Monthly
Summary
United States of America

SUNDERLAND, MASSACHUSETTS


Home > North America > United States > Massachusetts
Elevation: 240 feet     Latitude: 42 27N     Longitude: 072 33W

WEATHER
 
SELECT A DAY
Number of Records: 214,913;   Date Range: 7/1/96 - 9/29/14
 
SHARE

PRINT THIS DATA

[ ← Previous Day ]
WEATHER ALMANAC - FEBRUARY 13, 2013
[ Next Day → ]
[ °C ]   °F
Weather ElementAverageHighLow
Temperature31.9 °F37.9 °F (12:52 pm)27 °F (6:52 pm)
Dewpoint21.2 °F23 °F (11:52 pm)19 °F (2:52 pm)
Humidity65.7 %81 % (8:52 pm)48 % (12:52 pm)
Barometer29.81 in29.87 in (3:52 am)29.73 in (10:52 pm)
Wind Speed2.7 mph10.4 mph (11:52 am)
Wind Gust16.1 mph (11:52 am)
Weather ElementAverage
Visibility10 mi
Wind DirectionESE (102.8 °)

Weather ElementTotal
Precipitation---
Heating Degree Days32.6 (Base 65)
Averaged from 25 records on February 13, 2013
WEATHER CONDITIONS BREAKOUT
WIND DIRECTION BREAKOUT
WEATHER BY HOUR - FEBRUARY 13, 2013
[ °C ]   °F
Local TimeTemperatureDewpointHumidityBarometerVisibilityWind DirectionWind SpeedGust SpeedPrecipitationEventsConditions
1:52 AM30.9 °F21.0 °F67 %29.85 in10.0 miVariable5.8 mphMostly Cloudy
2:52 AM28.9 °F21.0 °F72 %29.86 in10.0 miCalmMostly Cloudy
3:52 AM30.9 °F21.9 °F69 %29.87 in10.0 miWest (260°)5.8 mphOvercast
4:52 AM32.0 °F21.9 °F66 %29.87 in10.0 miCalmOvercast
5:52 AM30.9 °F21.9 °F69 %29.86 in10.0 miCalmOvercast
6:52 AM30.9 °F21.9 °F69 %29.87 in10.0 miCalmOvercast
7:49 AM30.2 °F21.2 °F69 %29.85 in10.0 miWNW (300°)4.6 mphOvercast
7:52 AM30.9 °F21.9 °F69 %29.87 in10.0 miWNW (290°)4.6 mphOvercast
8:33 AM32.0 °F21.2 °F64 %29.85 in10.0 miNW (320°)6.9 mphOvercast
8:52 AM33.1 °F21.9 °F64 %29.87 in10.0 miNW (310°)9.2 mphOvercast
9:52 AM33.1 °F21.9 °F64 %29.86 in10.0 miWNW (290°)6.9 mphOvercast
10:52 AM36.0 °F21.0 °F55 %29.84 in10.0 miVariable4.6 mphMostly Cloudy
11:52 AM36.0 °F21.0 °F55 %29.83 in10.0 miWest (260°)10.4 mph16.1 mphOvercast
12:52 PM37.9 °F19.9 °F48 %29.82 in10.0 miCalmMostly Cloudy
1:52 PM37.9 °F19.9 °F48 %29.80 in10.0 miWSW (240°)5.8 mphMostly Cloudy
2:52 PM37.0 °F19.0 °F48 %29.78 in10.0 miCalmMostly Cloudy
3:52 PM37.9 °F19.9 °F48 %29.77 in10.0 miCalmPartly Cloudy
4:52 PM36.0 °F19.0 °F50 %29.76 in10.0 miWNW (300°)3.5 mphClear
5:52 PM28.9 °F21.9 °F75 %29.75 in10.0 miCalmClear
6:52 PM27.0 °F21.0 °F78 %29.75 in10.0 miCalmClear
7:52 PM27.0 °F21.0 °F78 %29.75 in10.0 miCalmClear
8:52 PM27.0 °F21.9 °F81 %29.75 in10.0 miCalmMostly Cloudy
9:52 PM28.0 °F21.9 °F78 %29.74 in10.0 miCalmMostly Cloudy
10:52 PM28.0 °F21.9 °F78 %29.73 in10.0 miCalmOvercast
11:52 PM28.0 °F23.0 °F81 %29.73 in10.0 miCalmOvercast
Hourly data recorded from KORE, located miles away from Sunderland, Massachusetts







STORIES FROM OUR PARTNERS